Powrót do katalogu

DELTA 1 DEB

AktywnySSO
NORAD 42649·DEBRIS·🇺🇸 United States

Wystrzelony Jun 12, 1975 z Vandenberg Space Force Base

Loading…

Następne Przeloty (najbliższe 24 godziny)

TLE

NieaktualneSource: Space-Track

Epoka: Aug 25, 2026, 08:31 UTC

1 42649U 75052MJ  26237.35506158  .00000032  00000-0  13675-3 0  9997
2 42649  99.7454 101.7863 0035658  67.9953 292.4958 13.39213048628231

Śledź DELTA 1 DEB w czasie rzeczywistym z AllMySat

Download on the App Store